Weather History for Beaufort, NC

Change the Weather History Date:

Thursday, January 17, 2013

  Actual Average Record
Temperature  
Mean Temperature 58 °F -  
Max Temperature 68 °F 55 °F 70 °F (1950)
Min Temperature 48 °F 29 °F 9 °F (1977)
Degree Days  
Heating Degree Days 7    
Growing Degree Days 8 (Base 50)    
Moisture  
Dew Point 55 °F    
Average Humidity 95    
Maximum Humidity 100    
Minimum Humidity 78    
Precipitation  
Precipitation 0.11 in - - ()
Sea Level Pressure  
Sea Level Pressure 29.94 in    
Wind  
Wind Speed 6 mph (NE)    
Max Wind Speed 20 mph    
Max Gust Speed 31 mph    
Visibility 4 miles    
Events Fog , Rain    
Averages and records for this station are not official NWS values.
T = Trace of Precipitation, MM = Missing Value Source: NWS Daily Summary

Daily Weather History Graph

Daily Weather History Graph

Search for Another Location

Airport:

Trip Planner

Search our weather history database for the weather conditions in past years. The results will help you decide how hot, cold, wet, or windy it might be!

Date:

Astronomy

Jan. 17, 2013 Rise Set
Actual Time 7:12 AM EST 5:21 PM EST
Civil Twilight 6:45 AM EST 5:48 PM EST
Nautical Twilight 6:14 AM EST 6:19 PM EST
Astronomical Twilight 5:44 AM EST 6:49 PM EST
Moon 10:36 AM EST (1/17) 11:51 PM EST (1/17)
Length of Visible Light 11h 02m
Length of Day
10h 08m
Waxing Crescent, 37% of the Moon is Illuminated
Jan 17
Waxing Crescent
Jan 18
First Quarter
Jan 26
Full
Feb 3
Last Quarter
Feb 10
New

Hourly Weather History & Observations

Time (EST) Temp. Dew Point Humidity Pressure Visibility Wind Dir Wind Speed Gust Speed Precip Events Conditions
12:22 AM 57.2 °F 57.2 °F 100% 29.99 in 1.8 mi South 3.5 mph - N/A   Clear
12:49 AM 59.0 °F 57.2 °F 94% 29.99 in 3.0 mi South 4.6 mph - N/A   Clear
12:58 AM 59.0 °F 57.9 °F 96% 29.99 in 4.0 mi South 5.8 mph - N/A   Clear
1:23 AM 59.0 °F 59.0 °F 100% 29.99 in 2.5 mi SSW 4.6 mph - N/A   Clear
1:45 AM 59.0 °F 59.0 °F 100% 29.99 in 1.2 mi SSW 3.5 mph - N/A   Clear
1:58 AM 59.0 °F 59.0 °F 100% 29.99 in 0.5 mi West 3.5 mph - N/A Fog Fog
2:15 AM 57.2 °F 57.2 °F 100% 29.99 in 0.2 mi SW 3.5 mph - N/A Fog Fog
2:58 AM 57.0 °F 57.0 °F 100% 29.99 in 0.2 mi Calm Calm - N/A Fog Fog
3:58 AM 57.0 °F 55.9 °F 96% 29.98 in 0.2 mi Calm Calm - 0.01 in Fog Fog
4:58 AM 57.0 °F 55.9 °F 96% 29.97 in 0.2 mi South 3.5 mph - N/A Fog Fog
5:58 AM 55.9 °F 55.9 °F 100% 29.96 in 0.2 mi Calm Calm - N/A Fog Fog
6:22 AM 55.4 °F 55.4 °F 100% 29.97 in 0.2 mi Calm Calm - N/A Fog Fog
6:32 AM 57.2 °F 55.4 °F 94% 29.97 in 0.5 mi Calm Calm - N/A Fog Fog
6:55 AM 57.2 °F 57.2 °F 100% 29.97 in 0.5 mi Calm Calm - N/A Fog Fog
6:58 AM 57.9 °F 57.0 °F 97% 29.97 in 0.5 mi Calm Calm - N/A Fog Fog
7:18 AM 57.2 °F 57.2 °F 100% 29.98 in 1.2 mi SW 5.8 mph - N/A   Clear
7:23 AM 57.2 °F 57.2 °F 100% 29.98 in 3.0 mi SSW 6.9 mph - N/A   Clear
7:58 AM 62.1 °F 61.0 °F 96% 29.99 in 9.0 mi SW 9.2 mph - N/A   Clear
8:58 AM 62.1 °F 61.0 °F 96% 30.00 in 8.0 mi SW 9.2 mph - N/A   Scattered Clouds
9:58 AM 64.9 °F 61.0 °F 87% 30.00 in 9.0 mi West 6.9 mph - N/A   Clear
11:58 AM 68.0 °F 61.0 °F 78% 29.95 in 10.0 mi SSW 3.5 mph - N/A   Clear
12:30 PM 66.2 °F 60.8 °F 83% 29.94 in 10.0 mi NNE 9.2 mph - N/A   Mostly Cloudy
12:47 PM 64.4 °F 60.8 °F 88% 29.93 in 9.0 mi NNE 13.8 mph - N/A   Overcast
12:58 PM 61.0 °F 57.0 °F 87% 29.93 in 8.0 mi NNE 11.5 mph - N/A   Overcast
1:34 PM 57.2 °F 55.4 °F 94% 29.92 in 6.0 mi NE 10.4 mph - N/A   Overcast
1:58 PM 55.9 °F 54.0 °F 93% 29.92 in 2.5 mi NE 10.4 mph 18.4 mph N/A   Overcast
2:58 PM 54.0 °F 53.1 °F 97% 29.92 in 2.0 mi NE 11.5 mph 19.6 mph N/A   Overcast
3:27 PM 53.6 °F 51.8 °F 94% 29.91 in 1.8 mi NE 13.8 mph 25.3 mph N/A   Overcast
3:55 PM 53.6 °F 51.8 °F 94% 29.91 in 2.0 mi ENE 16.1 mph 26.5 mph N/A   Overcast
3:58 PM 53.1 °F 52.0 °F 96% 29.91 in 1.8 mi NE 16.1 mph 27.6 mph N/A   Overcast
4:05 PM 53.6 °F 51.8 °F 94% 29.90 in 2.0 mi ENE 16.1 mph 27.6 mph N/A   Overcast
4:58 PM 51.1 °F 48.9 °F 92% 29.91 in 2.5 mi ENE 16.1 mph 26.5 mph 0.01 in Rain Light Rain
5:06 PM 50.0 °F 48.2 °F 94% 29.90 in 4.0 mi NE 15.0 mph 25.3 mph 0.00 in Rain Light Rain
5:58 PM 50.0 °F 48.0 °F 93% 29.88 in 8.0 mi NE 11.5 mph 27.6 mph 0.00 in   Overcast
6:58 PM 48.9 °F 46.9 °F 93% 29.86 in 10.0 mi NE 18.4 mph 28.8 mph N/A   Overcast
7:49 PM 48.2 °F 46.4 °F 93% 29.82 in 6.0 mi NNE 8.1 mph 25.3 mph 0.05 in Rain Light Rain
7:58 PM 48.9 °F 48.0 °F 97% 29.86 in 10.0 mi NNE 15.0 mph 26.5 mph 0.05 in   Overcast
8:58 PM 48.0 °F 46.9 °F 96% 29.81 in 3.0 mi NE 19.6 mph 24.2 mph 0.04 in Rain Heavy Rain
9:05 PM 48.2 °F 46.4 °F 93% 29.80 in 2.5 mi NNE 18.4 mph 31.1 mph 0.02 in Rain Rain
9:12 PM 48.2 °F 46.4 °F 93% 29.80 in 5.0 mi NNE 19.6 mph 28.8 mph 0.03 in Rain Light Rain